TimeCST,TemperatureF,Dew PointF,Humidity,Sea Level PressureIn,VisibilityMPH,Wind Direction,Wind SpeedMPH,Gust SpeedMPH,PrecipitationIn,Events,Conditions,WindDirDegrees,DateUTC
12:53 AM,34.0,34.0,100,29.64,0.2,NNW,5.8,-,N/A,Fog,Fog,330,2012-11-10 06:53:00
1:53 AM,34.0,33.1,96,29.60,0.2,NNW,5.8,-,N/A,Fog,Fog,340,2012-11-10 07:53:00
2:28 AM,33.8,33.8,100,29.57,0.2,NNW,3.5,-,N/A,Fog,Fog,340,2012-11-10 08:28:00
2:53 AM,35.1,35.1,100,29.59,0.2,NNW,5.8,-,N/A,Fog,Fog,340,2012-11-10 08:53:00
3:53 AM,35.6,35.6,100,29.55,0.2,NW,5.8,-,N/A,Fog,Fog,320,2012-11-10 09:53:00
4:53 AM,36.0,36.0,100,29.59,0.5,Calm,Calm,-,N/A,Fog,Fog,0,2012-11-10 10:53:00
5:02 AM,35.6,35.6,100,29.56,1.2,WNW,3.5,-,N/A,,Overcast,300,2012-11-10 11:02:00
5:17 AM,35.6,35.6,100,29.56,2.5,Calm,Calm,-,N/A,,Overcast,0,2012-11-10 11:17:00
5:53 AM,37.0,36.0,96,29.60,2.5,Calm,Calm,-,N/A,,Overcast,0,2012-11-10 11:53:00
6:13 AM,37.4,35.6,93,29.57,3.0,Calm,Calm,-,N/A,,Overcast,0,2012-11-10 12:13:00
6:32 AM,37.4,37.4,100,29.56,3.0,Calm,Calm,-,N/A,,Overcast,0,2012-11-10 12:32:00
6:43 AM,37.4,37.4,100,29.56,2.0,NW,5.8,-,N/A,,Overcast,310,2012-11-10 12:43:00
6:51 AM,37.4,37.4,100,29.56,1.5,NW,3.5,-,N/A,,Overcast,320,2012-11-10 12:51:00
6:53 AM,37.9,37.9,100,29.59,1.5,NW,3.5,-,N/A,,Overcast,320,2012-11-10 12:53:00
7:03 AM,37.4,37.4,100,29.56,0.8,Calm,Calm,-,N/A,,Overcast,0,2012-11-10 13:03:00
7:53 AM,39.0,37.9,96,29.62,0.2,SW,3.5,-,N/A,Fog,Fog,220,2012-11-10 13:53:00
8:41 AM,39.2,39.2,100,29.58,1.0,South,3.5,-,N/A,,Overcast,190,2012-11-10 14:41:00
8:53 AM,39.9,39.9,100,29.64,1.0,SW,6.9,-,N/A,,Overcast,220,2012-11-10 14:53:00
9:11 AM,41.0,39.2,93,29.58,1.8,WNW,5.8,-,N/A,,Overcast,290,2012-11-10 15:11:00
9:18 AM,41.0,39.2,93,29.58,2.5,West,4.6,-,N/A,,Overcast,280,2012-11-10 15:18:00
9:29 AM,41.0,39.2,93,29.58,3.0,West,5.8,-,N/A,,Overcast,260,2012-11-10 15:29:00
9:53 AM,41.0,39.9,96,29.62,3.0,WNW,6.9,-,N/A,,Overcast,290,2012-11-10 15:53:00
10:40 AM,44.6,39.2,81,29.56,5.0,NW,3.5,-,N/A,,Haze,320,2012-11-10 16:40:00
10:53 AM,46.0,39.9,79,29.59,6.0,NNW,9.2,-,N/A,,Haze,330,2012-11-10 16:53:00
11:21 AM,46.4,39.2,76,29.55,6.0,NNW,6.9,-,N/A,,Haze,330,2012-11-10 17:21:00
11:53 AM,46.9,39.9,77,29.58,7.0,NNW,3.5,-,N/A,,Partly Cloudy,330,2012-11-10 17:53:00
12:53 PM,51.1,41.0,68,29.55,8.0,NW,8.1,-,N/A,,Partly Cloudy,320,2012-11-10 18:53:00
1:53 PM,52.0,39.9,63,29.52,10.0,NNW,11.5,16.1,N/A,,Clear,330,2012-11-10 19:53:00
2:53 PM,48.9,39.0,69,29.50,10.0,NNW,16.1,-,N/A,,Partly Cloudy,330,2012-11-10 20:53:00
3:53 PM,44.1,36.0,73,29.53,10.0,NNW,15.0,-,0.00,,Overcast,330,2012-11-10 21:53:00
4:26 PM,42.8,37.4,81,29.49,10.0,NNW,16.1,-,0.00,Rain-Thunderstorm,Light Rain,330,2012-11-10 22:26:00
4:41 PM,42.8,37.4,81,29.53,10.0,NW,16.1,23.0,0.00,,Overcast,320,2012-11-10 22:41:00
4:53 PM,42.1,36.0,79,29.57,10.0,NW,15.0,-,0.00,,Overcast,320,2012-11-10 22:53:00
5:01 PM,42.8,35.6,76,29.55,10.0,NW,13.8,-,N/A,,Overcast,320,2012-11-10 23:01:00
5:30 PM,41.0,37.4,87,29.52,10.0,NNW,18.4,24.2,0.00,,Overcast,330,2012-11-10 23:30:00
5:39 PM,41.0,37.4,87,29.52,9.0,NNW,19.6,-,0.00,Rain,Light Rain,340,2012-11-10 23:39:00
5:53 PM,39.9,37.0,89,29.55,10.0,NNW,21.9,33.4,0.01,Rain,Light Rain,340,2012-11-10 23:53:00
6:13 PM,39.2,35.6,87,29.57,10.0,NNW,21.9,32.2,0.00,Rain,Light Rain,330,2012-11-11 00:13:00
6:45 PM,37.4,33.8,87,29.64,10.0,NW,17.3,26.5,0.00,Rain,Light Rain,320,2012-11-11 00:45:00
6:53 PM,37.0,34.0,89,29.70,9.0,NW,18.4,25.3,0.01,Rain,Rain,320,2012-11-11 00:53:00
7:05 PM,35.6,33.8,93,29.61,4.0,NNW,26.5,34.5,0.03,Rain,Rain,330,2012-11-11 01:05:00
7:36 PM,33.8,30.2,87,29.62,10.0,NNW,23.0,35.7,0.03,,Scattered Clouds,330,2012-11-11 01:36:00
7:45 PM,33.8,30.2,87,29.61,10.0,NNW,21.9,31.1,0.03,,Mostly Cloudy,330,2012-11-11 01:45:00
7:53 PM,33.1,30.0,89,29.63,10.0,North,23.0,33.4,0.03,,Mostly Cloudy,350,2012-11-11 01:53:00
8:08 PM,32.0,28.4,87,29.64,10.0,NNW,28.8,39.1,N/A,,Overcast,330,2012-11-11 02:08:00
8:31 PM,28.4,24.8,86,29.63,10.0,NNW,26.5,39.1,N/A,,Overcast,340,2012-11-11 02:31:00
8:53 PM,28.0,21.9,78,29.75,10.0,North,21.9,36.8,N/A,,Overcast,350,2012-11-11 02:53:00
9:53 PM,26.6,21.2,80,29.74,4.0,North,23.0,29.9,N/A,Snow,Light Snow,350,2012-11-11 03:53:00
10:03 PM,26.6,21.2,80,29.74,2.0,NNW,19.6,28.8,0.00,Snow,Light Snow,340,2012-11-11 04:03:00
10:09 PM,26.6,21.2,80,29.75,3.0,NNW,19.6,26.5,0.00,Snow,Light Snow,330,2012-11-11 04:09:00
10:40 PM,26.6,21.2,80,29.77,10.0,NNW,17.3,26.5,0.00,,Overcast,330,2012-11-11 04:40:00
10:53 PM,25.0,21.0,85,29.82,10.0,NNW,23.0,28.8,0.00,,Overcast,330,2012-11-11 04:53:00
11:21 PM,24.8,19.4,80,29.79,10.0,NNW,21.9,32.2,N/A,,Overcast,330,2012-11-11 05:21:00
11:40 PM,24.8,19.4,80,29.79,10.0,NNW,24.2,31.1,N/A,,Overcast,330,2012-11-11 05:40:00
11:53 PM,24.1,19.0,81,29.84,10.0,NNW,18.4,33.4,N/A,,Overcast,330,2012-11-11 05:53:00